Location: Peebles
(55.6412°N, 3.1714°W)
Time: 06:59:39
(UTC+01:00)

Altair 2 - Pass Details

Date: 11 July 2022
Orbit: 702 x 2529 km, 96.4° (Epoch: 10 August)

Event Time Altitude Azimuth Distance (km) Brightness Sun altitude
Rises 01:40:12 0° 85° (E) 5,101 11.9 -12.1°
Reaches altitude 10° 01:45:45 10° 62° (ENE) 3,685 11.5 -12.0°
Maximum altitude 01:49:00 13° 39° (NE) 3,206 11.6 -12.0°
Drops below altitude 10° 01:51:55 10° 15° (NNE) 3,186 12.2 -11.9°
Sets 01:55:57 0° 349° (NNW) 3,824 12.6 -11.8°
